This is the latest recevied weather packets stored in our database for station/object JA7ZQY-10. If no packets are shown the sender has not sent any weather packets the latest 10 day(s).
| Time | Temp. | Humidity | Pressure | Rain* | Wind** | Luminosity | Snow |
|---|---|---|---|---|---|---|---|
| 1788584769 | 25.56° C | 53% | 1016.6 hPa | 0 mm | - | - | - |
| 1788584168 | 26.11° C | 54% | 1016.6 hPa | 0 mm | - | - | - |
| 1788583569 | 25.56° C | 53% | 1016.5 hPa | 0 mm | - | - | - |
| 1788582968 | 25° C | 55% | 1016.4 hPa | 0 mm | - | - | - |
| 1788582367 | 23.89° C | 57% | 1016.5 hPa | 0 mm | - | - | - |
| 1788581769 | 24.44° C | 56% | 1016.5 hPa | 0 mm | - | - | - |
| 1788581168 | 25° C | 56% | 1016.5 hPa | 0 mm | - | - | - |
| 1788580567 | 25° C | 55% | 1016.7 hPa | 0 mm | - | - | - |
| 1788579969 | 25.56° C | 55% | 1016.5 hPa | 0 mm | - | - | - |
| 1788579367 | 25° C | 56% | 1016.5 hPa | 0 mm | - | - | - |
| 1788578769 | 24.44° C | 56% | 1016.9 hPa | 0 mm | - | - | - |
| 1788578168 | 25° C | 58% | 1016.8 hPa | 0 mm | - | - | - |
| 1788577568 | 24.44° C | 57% | 1016.5 hPa | 0 mm | - | - | - |
| 1788576967 | 25° C | 57% | 1016.4 hPa | 0 mm | - | - | - |
| 1788576369 | 24.44° C | 57% | 1016.7 hPa | 0 mm | - | - | - |
| 1788575768 | 23.89° C | 58% | 1016.8 hPa | 0 mm | - | - | - |
| 1788575168 | 24.44° C | 56% | 1016.6 hPa | 0 mm | - | - | - |
| 1788574569 | 24.44° C | 56% | 1016.6 hPa | 0 mm | - | - | - |
| 1788573969 | 24.44° C | 57% | 1016.9 hPa | 0 mm | - | - | - |
| 1788573369 | 23.89° C | 58% | 1016.7 hPa | 0 mm | - | - | - |
| 1788572768 | 23.33° C | 59% | 1016.8 hPa | 0 mm | - | - | - |
| 1788572168 | 23.33° C | 59% | 1017 hPa | 0 mm | - | - | - |
| 1788571568 | 24.44° C | 58% | 1016.9 hPa | 0 mm | - | - | - |
| 1788570969 | 23.89° C | 59% | 1017.1 hPa | 0 mm | - | - | - |
| 1788570368 | 23.89° C | 61% | 1017.2 hPa | 0 mm | - | - | - |
* Rain latest hour (hover to see other rain measurements)
** Current wind speed in m/s (hover to see current wind gust speed)